Home   Weather   Lens   Past weeks

Flag for France Past Weather in Lens, Nord-Pas-de-Calais, France — Yesterday and Last 2 Weeks

Now
64 °F

Clear.


Feels Like: 64 °F
Forecast: 56 / 71 °F
Wind: 7 mph from Northwest

Location: Lille Airport

Current Time: Jun 28, 2017 at 11:03:36 pm

Latest Report: Jun 28, 2017 at 10:30 pm


Visibility: 10 mi

Pressure: 29.39 "Hg

Humidity: 78%

Dew Point: 57 °F

Location of LensLocation

Past Weather in Lens — Graph

°F

Lens Temperature Yesterday

Maximum temperature yesterday: 75 °F (at 2:00 pm)
Minimum temperature yesterday: 57 °F (at 3:30 am)
Average temperature yesterday: 65 °F

High & Low Weather Summary for the Past Weeks

 TemperatureHumidityPressure
High93 °F (Jun 21, 5:30 pm)100% (Jun 28, 4:00 am)30.33 "Hg (Jun 28, 4:00 am)
Low54 °F (Jun 16, 6:00 am)29% (Jun 19, 4:30 pm)29.39 "Hg (Jun 28, 5:00 pm)
Average70 °F64%29.99 "Hg
* Reported Jun 13 9:00 pm — Jun 28 9:00 pm, Lens. Weather by CustomWeather, © 2017

Note: Actual official high and low records may vary slightly from our data, if they occured in-between our weather recording intervals... More about our weather records

Advertising

Lens Weather History for the Previous 24 Hours

Scroll right to see more
 ConditionsComfort  
Time TempWeatherWind HumidityBarometerVisibility
9:00 pm
Wed, Jun 28
70 °FOvercast.8 mph60%29.39 "HgN/A
8:30 pm72 °FPartly sunny.12 mph61%29.39 "HgN/A
8:00 pm72 °FBroken clouds.8 mph61%29.39 "HgN/A
7:30 pm72 °FBroken clouds.7 mph61%29.39 "HgN/A
7:00 pm72 °FPassing clouds.8 mph61%29.39 "HgN/A
6:30 pm73 °FPassing clouds.8 mph57%29.39 "HgN/A
6:00 pm73 °FScattered clouds.7 mph57%29.39 "HgN/A
5:30 pm72 °FPartly sunny.8 mph57%29.39 "HgN/A
5:00 pm72 °FPartly sunny.10 mph57%29.39 "HgN/A
4:30 pm72 °FPartly sunny.12 mph61%29.42 "HgN/A
4:00 pm72 °FMore clouds than sun.13 mph61%29.42 "HgN/A
3:30 pm70 °FMore clouds than sun.12 mph64%29.42 "HgN/A
3:00 pm66 °FMore clouds than sun.13 mph73%29.42 "HgN/A
2:30 pm66 °FMostly cloudy.12 mph73%29.45 "HgN/A
2:00 pm66 °FMostly cloudy.12 mph78%29.45 "HgN/A
1:30 pm64 °FCloudy.13 mph83%29.45 "HgN/A
1:00 pm64 °FOvercast.13 mph83%29.45 "HgN/A
12:30 pm64 °FMostly cloudy.12 mph83%29.45 "HgN/A
12:00 pm64 °FOvercast.12 mph83%29.45 "HgN/A
11:30 am64 °FOvercast.12 mph83%29.45 "HgN/A
11:00 am63 °FOvercast.15 mph88%29.45 "HgN/A
10:30 am63 °FOvercast.12 mph88%29.45 "HgN/A
10:00 am63 °FLow clouds.13 mph88%29.45 "HgN/A
9:30 am63 °FLow clouds.13 mph88%29.42 "HgN/A
9:00 am63 °FLow clouds.9 mph94%29.42 "HgN/A
8:30 am63 °FLow clouds.9 mph94%29.42 "Hg4 mi
8:00 am63 °FFog.8 mph94%29.42 "Hg2 mi
7:30 am63 °FFog.12 mph94%29.42 "Hg2 mi
7:00 am63 °FFog.6 mph100%29.45 "Hg2 mi
6:30 am63 °FDrizzle. Fog.5 mph94%29.45 "Hg1 mi
6:00 am63 °FFog.6 mph94%29.45 "Hg2 mi
5:30 am63 °FFog.5 mph100%29.45 "Hg1 mi
5:00 am63 °FFog.2 mph94%29.45 "Hg2 mi
4:30 am64 °FFog.3 mph94%29.45 "Hg1 mi
4:00 am64 °FFog.3 mph100%29.45 "Hg1 mi
3:30 am64 °FFog.3 mph94%29.45 "Hg2 mi
3:00 am66 °FFog.3 mph94%29.45 "Hg2 mi
2:30 am66 °FFog.2 mph88%29.47 "Hg2 mi
2:00 am64 °FFog.No wind94%29.47 "Hg2 mi
1:30 am64 °FFog.No wind94%29.50 "Hg2 mi
1:00 am66 °FLight rain. Fog.No wind88%29.50 "Hg2 mi
12:30 am66 °FLight rain. Fog.1 mph88%29.50 "Hg3 mi
12:00 am66 °FFog.3 mph88%29.50 "Hg3 mi
11:30 pm
Tue, Jun 27
66 °FFog.5 mph88%29.53 "Hg3 mi
11:00 pm66 °FLight rain. Fog.6 mph94%29.53 "Hg3 mi
Weather by CustomWeather, © 2017

See weather overviewHow to use our weather pages